Погода в Уиклоу

Ирландия     52°58′48″N   6°02′51″W
темп.,
°C
ветер,
м/с
пор.,
м/с
влажн.,
%
обл.,
%
осадки,
мм/ч
давл.,
гПа
погр.,
м
20 января, чт
чт2000:00+6сз510805 0.0 1036518
03:00+5сз611825 0.0 1037554
06:00+5ссз611824 0.0 1038542
09:00+5ссз578667 0.0 1040314
12:00+6ссз46785 0.0 1041536
15:00+7с477492 0.0 1040773
18:00+5сз3578100 0.0 1041392
21:00+5зсз33775 0.0 1041121
21 января, пт
пт2100:00+4зсз23755 0.0 1041124
03:00+4з22785 0.0 1041101
06:00+4з22785 0.0 104088
09:00+4з22777 0.0 104196
12:00+6зюз11695 0.0 1041190
15:00+7вюв11703 0.0 1040144
18:00+5з11740 0.0 1039123
21:00+4з22800 0.0 104082
22 января, сб
сб2200:00+4зсз22815 0.0 103994
03:00+4зсз22835 0.0 103997
06:00+5зюз22796 0.0 103874
09:00+5зюз338012 0.0 103992
12:00+7юз237296 0.0 1039301
15:00+8ююз2273100 0.0 1037124
18:00+6зюз327811 0.0 103789
21:00+5з22795 0.0 103766
23 января, вс
вс2300:00+5зюз22795 0.0 103689
03:00+4юз33812 0.0 1035128
06:00+4юз448271 0.0 1034160
09:00+4юз45835 0.0 1034166
12:00+6зюз22735 0.0 1034236
15:00+7ююз11744 0.0 1034178
18:00+5з11795 0.0 1034102
21:00+4з228269 0.0 103581
24 января, пн
пн2400:00+4з228313 0.0 103595
03:00+4з2282100 0.0 103677
06:00+4зюз33816 0.0 103680
09:00+5зюз44816 0.0 103788
12:00+8юз44735 0.0 1038149
15:00+9юз33735 0.0 103753
18:00+7зюз34785 0.0 103868
21:00+7з347310 0.0 103961